Observations for Trim Market St
| Time | AQI | Temp °C | Hum % | Pres Pa | CO μg/m³ | H₂S μg/m³ | NO μg/m³ | NO₂ μg/m³ | O₃ μg/m³ | SO₂ μg/m³ | PM1 μg/m³ | PM2.5 μg/m³ | PM10 μg/m³ |
|---|---|---|---|---|---|---|---|---|---|---|---|---|---|
| Wednesday 12 August 2026 | |||||||||||||
| 04:16 | 2 | 19.2 | 66 | 56,989 | 0.06 | 0 | 1.3 | 17.77 | 58.29 | 0 | 1.43 | 3.22 | 5.58 |
| 04:14 | 2 | 19.2 | 66 | 57,009 | 0.06 | 0 | 1.33 | 12.16 | 64.89 | 0 | 2.85 | 5.19 | 7.53 |
| 04:13 | 2 | 19.2 | 66 | 57,009 | 0.06 | 0 | 1.29 | 12.35 | 68.76 | 0 | 1.43 | 3.23 | 4.93 |
| 04:07 | 2 | 19.2 | 66 | 57,061 | 0.06 | 0 | 1.32 | 28.1 | 59.04 | 0 | 2.85 | 4.72 | 7.53 |
| 04:06 | 2 | 19.2 | 66 | 57,083 | 0.06 | 0 | 1.33 | 12.83 | 61.2 | 0 | 2.85 | 4.72 | 7.53 |
| 04:05 | 2 | 19.3 | 66 | 57,099 | 0.07 | 0 | 1.46 | 14.97 | 64.27 | 0 | 2.14 | 4.73 | 6.88 |
| 04:01 | 2 | 19.3 | 66 | 57,140 | 0.06 | 0 | 1.3 | 16.75 | 64.67 | 0 | 2.85 | 4.72 | 6.88 |
| 03:56 | 2 | 19.3 | 66 | 57,164 | 0.05 | 0 | 1.29 | 12.9 | 61.02 | 0 | 2.14 | 4.24 | 6.23 |
| 03:55 | 2 | 19.3 | 66 | 57,167 | 0.06 | 0 | 1.32 | 15.01 | 61.36 | 0 | 1.43 | 3.75 | 6.22 |
| 03:54 | 2 | 19.2 | 66 | 57,170 | 0.08 | 0 | 1.32 | 13.37 | 59.19 | 0 | 1.43 | 3.75 | 5.57 |
| 03:53 | 2 | 19.3 | 66 | 57,173 | 0.07 | 0 | 1.31 | 13.33 | 64.1 | 0 | 2.14 | 4.73 | 7.53 |
| 03:52 | 2 | 19.3 | 66 | 57,172 | 0.06 | 0 | 1.32 | 12.66 | 62.56 | 0 | 1.43 | 4.25 | 6.22 |
| 03:51 | 2 | 19.3 | 66 | 57,177 | 0.06 | 0 | 1.31 | 13.23 | 60.84 | 0 | 1.43 | 3.26 | 4.92 |
| 03:49 | 2 | 19.3 | 66 | 57,182 | 0.06 | 0 | 1.3 | 12.47 | 59 | 0 | 1.43 | 4.25 | 6.22 |
| 03:48 | 2 | 19.2 | 66 | 57,186 | 0.07 | 0 | 1.3 | 12.03 | 68.88 | 0 | 2.14 | 4.74 | 7.53 |
| 03:47 | 2 | 19.3 | 66 | 57,197 | 0.06 | 0 | 1.28 | 12.35 | 64.93 | 0 | 1.43 | 3.75 | 5.57 |
| 03:46 | 2 | 19.2 | 66 | 57,205 | 0.06 | 0 | 1.3 | 15.84 | 61.21 | 0 | 2.14 | 4.25 | 6.22 |
| 03:45 | 2 | 19.3 | 66 | 57,216 | 0.05 | 0 | 1.26 | 16.85 | 59.49 | 0 | 2.14 | 4.25 | 6.22 |
| 03:44 | 2 | 19.3 | 66 | 57,223 | 0.06 | 0 | 1.26 | 13.36 | 66.12 | 0 | 2.85 | 3.76 | 6.88 |
| 03:43 | 2 | 19.3 | 66 | 57,231 | 0.05 | 0 | 1.26 | 12.02 | 70.67 | 0 | 2.14 | 3.27 | 5.57 |